This is the latest recevied weather packets stored in our database for station/object KD4EG. If no packets are shown the sender has not sent any weather packets the latest 10 day(s).
| Time | Temp. | Humidity | Pressure | Rain* | Wind** | Luminosity | Snow |
|---|---|---|---|---|---|---|---|
| 1787966596 | 23.89° C | 76% | 1021.1 hPa | 0 mm | - | 0 W/m² | - |
| 1787966295 | 24.44° C | 76% | 1021.2 hPa | 0 mm | - | 0 W/m² | - |
| 1787965990 | 24.44° C | 75% | 1021.1 hPa | 0 mm | - | 0 W/m² | - |
| 1787965685 | 24.44° C | 75% | 1020.8 hPa | 0 mm | - | 0 W/m² | - |
| 1787965379 | 24.44° C | 75% | 1020.8 hPa | 0 mm | - | 0 W/m² | - |
| 1787965079 | 25° C | 74% | 1020.6 hPa | 0 mm | - | 0 W/m² | - |
| 1787964774 | 25° C | 74% | 1020.7 hPa | 0 mm | - | 0 W/m² | - |
| 1787964474 | 25° C | 74% | 1020.5 hPa | 0 mm | - | 0 W/m² | - |
| 1787964170 | 25° C | 73% | 1020.4 hPa | 0 mm | - | 0 W/m² | - |
| 1787963869 | 25° C | 73% | 1020.4 hPa | 0 mm | - | 0 W/m² | - |
| 1787963564 | 25° C | 73% | 1020.6 hPa | 0 mm | - | 0 W/m² | - |
| 1787963259 | 25.56° C | 73% | 1020.3 hPa | 0 mm | - | 0 W/m² | - |
| 1787962959 | 25.56° C | 73% | 1020.4 hPa | 0 mm | - | 0 W/m² | - |
| 1787962657 | 26.11° C | 72% | 1020.2 hPa | 0 mm | - | 0 W/m² | - |
| 1787962352 | 26.11° C | 72% | 1020.4 hPa | 0 mm | - | 0 W/m² | - |
| 1787962046 | 26.11° C | 71% | 1020.2 hPa | 0 mm | - | 0 W/m² | - |
| 1787961735 | 26.67° C | 70% | 1020.4 hPa | 0 mm | - | 0 W/m² | - |
| 1787961434 | 26.67° C | 71% | 1020 hPa | 0 mm | - | 0 W/m² | - |
| 1787961134 | 26.67° C | 70% | 1020.1 hPa | 0 mm | - | 2 W/m² | - |
| 1787960832 | 27.78° C | 67% | 1020.1 hPa | 0 mm | - | 5 W/m² | - |
| 1787960528 | 28.33° C | 63% | 1020.2 hPa | 0 mm | - | 8 W/m² | - |
| 1787960227 | 28.89° C | 60% | 1020.1 hPa | 0 mm | - | 12 W/m² | - |
| 1787959921 | 28.89° C | 59% | 1020.2 hPa | 0 mm | - | 18 W/m² | - |
| 1787959617 | 28.89° C | 58% | 1020.2 hPa | 0 mm | - | 23 W/m² | - |
| 1787959316 | 30° C | 57% | 1020 hPa | 0 mm | - | 25 W/m² | - |
* Rain latest hour (hover to see other rain measurements)
** Current wind speed in m/s (hover to see current wind gust speed)